Zurück zum Katalog

STARLINK-2455

AktivKommunikationVLEO
NORAD 48117·PAYLOAD·🇺🇸 United States

Gestartet Apr 7, 2021 von Cape Canaveral Space Force Station

Loading…

Nächste Überflüge (nächste 24 Stunden)

TLE

AktuellSource: CelesTrak SupGP

Epoche: Sep 15, 2026, 02:21 UTC

1 48117C 21027AB  26258.09840278  .00045533  00000+0  14638-2 0  2585
2 48117  53.1600 351.0240 0001037  91.1191  71.5621 15.31688611    19

Verfolge STARLINK-2455 in Echtzeit mit AllMySat

Download on the App Store